Location: Kellogg
(38.0159°N, 90.0546°W)
Time: 21:16:01
(UTC+00:00)

Vanguard 1 - Pass Details

Date: 21 September 2024
Orbit: 648 x 3825 km, 34.3° (Epoch: 12 October)

Event Time Altitude Azimuth Distance (km) Brightness Sun altitude
Rises 19:30:21 0° 269° (W) 6,350 14.6 46.1°
Reaches altitude 10° 19:35:18 10° 268° (W) 4,821 14.1 45.5°
Maximum altitude 19:47:12 69° 188° (S) 1,451 12.2 44.0°
Drops below altitude 10° 19:53:36 10° 106° (ESE) 2,698 12.2 43.2°
Sets 19:55:38 0° 104° (ESE) 3,437 12.6 42.9°
